1530406801.07,8198,15.06,73358.0,-3.49,-4.05,-4.05,0,*66
1530406802.27,8199,15.06,73354.5,-3.49,-4.05,-4.05,0,*67
1530406803.48,8200,15.06,73354.8,-3.47,-3.95,-3.95,0,*6A
1530406804.67,8201,15.06,73356.0,-3.49,-4.05,-4.05,0,*65
1530406805.89,8202,15.06,73356.5,-3.49,-4.01,-4.05,0,*62
1530406807.09,8203,15.06,73358.3,-3.49,-3.95,-3.95,0,*67
1530406808.33,8204,15.06,73356.3,-3.47,-4.01,-3.95,0,*64
1530406809.57,8205,15.0,73356.0,-3.47,-4.01,-3.95,0,*65
1530406810.81,8206,15.06,73362.8,-3.47,-3.95,-4.01,0,*66
1530406812.03,8207,15.06,73362.3,-3.49,-4.01,-4.05,0,*67
1530406813.28,8208,15.06,73356.5,-3.47,-3.95,-4.01,0,*68
1530406814.49,8209,15.06,73356.5,-3.49,-4.05,-4.01,0,*69
1530406815.73,8210,15.06,73352.3,-3.47,-4.01,-3.95,0,*61
1530406817.0,8211,15.06,73354.3,-3.47,-4.01,-4.01,0,*6A
1530406818.21,8212,15.06,73352.8,-3.47,-4.09,-3.95,0,*6B
1530406819.4,8213,15.06,73354.0,-3.49,-4.05,-4.05,0,*66
1530406820.67,8214,15.06,73352.8,-3.47,-4.01,-4.01,0,*6F
1530406821.93,8215,15.0,73354.3,-3.47,-4.01,-4.01,0,*6E
1530406823.2,8216,15.0,73352.0,-3.47,-4.01,-4.01,0,*6D
1530406824.42,8217,15.06,73356.3,-3.49,-4.05,-4.01,0,*66
1530406825.61,8218,15.06,73358.0,-3.49,-4.05,-4.05,0,*6D
1530406826.87,8219,15.06,73358.3,-3.47,-4.01,-4.01,0,*62
1530406828.12,8220,15.06,73360.0,-3.49,-4.01,-4.01,0,*66
1530406829.39,8221,15.06,73356.5,-3.47,-4.01,-4.01,0,*69
1530406830.58,8222,15.06,73358.3,-3.49,-4.05,-4.05,0,*64
1530406831.82,8223,15.06,73358.0,-3.47,-4.01,-3.95,0,*61
1530406833.06,8224,15.06,73358.8,-3.47,-4.01,-3.95,0,*66
1530406834.28,8225,15.06,73354.0,-3.47,-3.95,-3.95,0,*6D
1530406835.52,8226,15.0,73352.3,-3.47,-3.95,-4.01,0,*64
1530406836.76,8227,15.0,73352.8,-3.47,-4.01,-3.95,0,*65
1530406838.0,8228,15.0,73358.0,-3.47,-3.95,-4.01,0,*6A
1530406839.21,8229,15.0,73352.8,-3.47,-3.95,-3.95,0,*61
1530406840.4,8230,15.0,73354.0,-3.45,-3.95,-3.87,0,*68
1530406841.62,8231,15.0,73350.3,-3.45,-3.95,-4.01,0,*60
1530406842.89,8232,15.06,73352.5,-3.47,-4.01,-4.01,0,*6B
1530406844.1,8233,15.06,73354.0,-3.47,-3.95,-3.95,0,*6A
1530406845.3,8234,15.06,73358.8,-3.45,-3.95,-3.95,0,*6F
1530406846.49,8235,15.06,73356.8,-3.45,-3.95,-3.95,0,*6E
1530406847.68,8236,15.06,73356.5,-3.45,-3.95,-3.95,0,*6D
1530406848.87,8237,15.06,73358.0,-3.45,-3.95,-3.87,0,*6F
1530406850.09,8238,15.06,73356.5,-3.45,-4.01,-3.95,0,*69
1530406851.28,8239,15.0,73352.5,-3.45,-3.95,-3.95,0,*62
1530406852.47,8240,15.0,73356.0,-3.45,-3.95,-3.87,0,*6F
1530406853.66,8241,15.06,73360.3,-3.45,-3.95,-3.87,0,*6E
1530406854.85,8242,15.0,73356.3,-3.45,-3.87,-3.87,0,*6E
1530406856.07,8243,15.06,73360.0,-3.43,-3.95,-3.91,0,*6D
1530406857.31,8244,15.0,73358.3,-3.45,-4.01,-4.01,0,*68
1530406858.56,8245,15.06,73362.0,-3.45,-4.01,-4.01,0,*69
1530406859.77,8246,15.0,73356.8,-3.45,-4.01,-3.95,0,*60
1530406860.98,8247,15.0,73356.3,-3.45,-4.09,-4.01,0,*63
1530406862.2,8248,15.06,73358.3,-3.45,-4.01,-4.09,0,*6C
1530406863.42,8249,15.06,73356.3,-3.45,-4.01,-3.95,0,*6F
1530406864.61,8250,15.06,73352.3,-3.45,-4.09,-4.09,0,*6D
1530406865.8,8251,15.0,73352.5,-3.45,-3.95,-3.95,0,*6C
1530406866.99,8252,15.06,73356.0,-3.45,-3.95,-3.95,0,*6F
1530406868.2,8253,15.0,73354.0,-3.45,-3.87,-4.01,0,*67
1530406869.45,8254,15.0,73358.0,-3.45,-4.01,-4.01,0,*69
1530406870.69,8255,15.06,73358.5,-3.45,-4.01,-4.01,0,*68
1530406871.91,8256,15.0,73358.3,-3.45,-4.01,-3.95,0,*61
1530406873.15,8257,15.0,73354.5,-3.45,-4.01,-4.01,0,*6A
1530406874.34,8258,15.06,73356.3,-3.45,-4.09,-3.95,0,*67
1530406875.58,8259,15.06,73354.8,-3.45,-4.01,-4.01,0,*64
1530406876.83,8260,15.06,73356.0,-3.45,-4.01,-4.01,0,*6E
1530406878.07,8261,15.0,73354.8,-3.45,-4.01,-4.01,0,*6F
1530406879.29,8262,15.0,73354.5,-3.45,-4.01,-3.95,0,*66
1530406880.48,8263,15.06,73354.3,-3.45,-3.95,-3.95,0,*6D
1530406881.67,8264,15.06,73358.8,-3.45,-3.95,-3.95,0,*6A
1530406882.94,8265,15.06,73356.8,-3.47,-4.01,-4.01,0,*69
1530406884.13,8266,15.06,73358.0,-3.45,-3.83,-3.95,0,*6F
1530406885.32,8267,15.0,73354.5,-3.45,-3.95,-3.95,0,*69
1530406886.54,8268,15.0,73352.8,-3.43,-3.91,-3.83,0,*63
1530406887.76,8269,15.0,73352.0,-3.45,-4.01,-3.95,0,*6D
1530406888.98,8270,15.0,73348.8,-3.45,-4.01,-3.95,0,*65
1530406890.16,8271,15.06,73350.3,-3.45,-3.87,-3.95,0,*6D
1530406891.38,8272,15.06,73350.0,-3.45,-4.01,-3.95,0,*67
1530406892.6,8273,15.0,73350.5,-3.43,-3.95,-3.95,0,*6A
1530406893.81,8274,15.0,73348.3,-3.43,-4.05,-3.95,0,*63
1530406895.0,8275,15.0,73350.3,-3.45,-4.09,-4.09,0,*6A
1530406896.18,8276,15.06,73350.8,-3.45,-4.09,-4.09,0,*69
1530406897.4,8277,15.06,73350.3,-3.43,-4.05,-4.05,0,*6E
1530406898.61,8278,15.0,73350.3,-3.43,-4.05,-3.95,0,*6F
1530406899.8,8279,15.0,73346.3,-3.45,-4.09,-4.09,0,*66
1530406901.04,8280,15.0,73346.0,-3.45,-4.01,-4.01,0,*60
1530406902.25,8281,15.0,73342.8,-3.45,-4.09,-4.01,0,*69
1530406903.44,8282,15.0,73340.5,-3.45,-4.09,-4.09,0,*62
1530406904.63,8283,15.06,73340.8,-3.45,-4.13,-4.09,0,*68
1530406905.81,8284,15.06,73338.8,-3.45,-4.13,-4.13,0,*64
1530406907.01,8285,15.06,73340.3,-3.45,-4.21,-4.21,0,*65
1530406908.2,8286,15.0,73338.0,-3.45,-4.13,-4.13,0,*66
1530406909.39,8287,15.06,73336.0,-3.45,-4.13,-4.13,0,*67
1530406910.58,8288,15.06,73332.8,-3.45,-4.13,-4.13,0,*68
1530406911.78,8289,15.06,73334.0,-3.45,-4.21,-4.21,0,*69
1530406912.98,8290,15.0,73330.5,-3.45,-4.21,-4.21,0,*61
1530406914.21,8291,15.06,73334.3,-3.47,-4.21,-4.21,0,*62
1530406915.41,8292,15.0,73332.8,-3.45,-4.21,-4.21,0,*63
1530406916.62,8293,15.06,73338.8,-3.47,-4.09,-4.13,0,*6B
1530406917.85,8294,15.0,73338.8,-3.47,-4.09,-4.01,0,*6F
1530406919.12,8295,15.0,73336.8,-3.47,-4.01,-4.01,0,*66
1530406920.36,8296,15.0,73338.3,-3.45,-4.01,-4.01,0,*67
1530406921.55,8297,15.06,73344.3,-3.45,-4.09,-4.13,0,*6D
1530406922.74,8298,15.0,73340.0,-3.45,-4.13,-4.09,0,*62
1530406923.95,8299,15.0,73344.0,-3.47,-4.09,-4.09,0,*6A
1530406925.18,8300,15.0,73348.3,-3.47,-4.09,-4.01,0,*63
1530406926.42,8301,15.06,73352.8,-3.47,-4.09,-4.01,0,*62
1530406927.63,8302,15.0,73352.5,-3.47,-4.09,-4.13,0,*62
1530406928.87,8303,15.0,73352.8,-3.47,-4.01,-4.09,0,*60
1530406930.09,8304,15.0,73348.5,-3.47,-4.13,-4.13,0,*6F
1530406931.31,8305,15.0,73350.3,-3.47,-4.21,-4.21,0,*6E
1530406932.52,8306,15.0,73354.0,-3.47,-4.25,-4.13,0,*68
1530406933.75,8307,15.06,73354.0,-3.47,-4.21,-4.21,0,*6C
1530406934.96,8308,15.0,73354.8,-3.47,-4.13,-4.21,0,*62
1530406936.18,8309,15.0,73352.8,-3.47,-4.09,-4.13,0,*69
1530406937.39,8310,15.06,73358.5,-3.47,-4.13,-4.13,0,*6A
1530406938.61,8311,15.0,73358.0,-3.47,-4.21,-4.13,0,*6A
1530406939.82,8312,15.0,73358.0,-3.47,-4.21,-4.09,0,*62
1530406941.05,8313,15.0,73352.8,-3.47,-4.25,-4.21,0,*6D
1530406942.26,8314,15.0,73352.0,-3.47,-4.25,-4.25,0,*6E
1530406943.48,8315,15.0,73356.3,-3.47,-4.25,-4.21,0,*6B
1530406944.7,8316,15.0,73356.3,-3.47,-4.21,-4.25,0,*68
1530406945.92,8317,15.06,73358.5,-3.47,-4.25,-4.25,0,*6D
1530406947.13,8318,15.0,73358.3,-3.47,-4.29,-4.25,0,*6E
1530406948.35,8319,15.0,73356.8,-3.47,-4.25,-4.25,0,*63
1530406949.57,8320,15.0,73360.0,-3.47,-4.25,-4.25,0,*69
1530406950.76,8321,15.0,73356.3,-3.49,-4.33,-4.29,0,*6D
1530406951.98,8322,15.06,73356.8,-3.47,-4.25,-4.25,0,*6B
1530406953.2,8323,15.0,73354.0,-3.47,-4.25,-4.25,0,*6A
1530406954.41,8324,15.0,73354.0,-3.47,-4.25,-4.25,0,*6D
1530406955.61,8325,15.06,73358.0,-3.49,-4.29,-4.29,0,*62
1530406956.82,8326,15.0,73354.8,-3.47,-4.29,-4.29,0,*6F
1530406958.04,8327,15.0,73350.3,-3.47,-4.25,-4.25,0,*6E
1530406959.23,8328,15.0,73348.5,-3.49,-4.33,-4.29,0,*64
1530406960.43,8329,15.0,73340.3,-3.49,-4.33,-4.41,0,*6B
1530406961.63,8330,15.0,73344.8,-3.49,-4.57,-4.65,0,*67
1530406962.82,8331,15.06,73350.5,-3.49,-4.65,-4.65,0,*67
1530406964.01,8332,15.0,73350.0,-3.49,-4.33,-4.33,0,*64
1530406965.21,8333,15.06,73348.8,-3.49,-4.33,-4.29,0,*6E
1530406966.43,8334,15.0,73350.5,-3.51,-4.25,-4.29,0,*67
1530406967.65,8335,15.0,73348.0,-3.51,-4.29,-4.29,0,*6A
1530406968.88,8336,15.0,73344.8,-3.51,-4.29,-4.29,0,*69
1530406970.09,8337,15.0,73350.8,-3.51,-4.29,-4.33,0,*63
1530406971.31,8338,15.0,73350.3,-3.51,-4.33,-4.33,0,*67
1530406972.53,8339,15.06,73354.3,-3.51,-4.33,-4.33,0,*66
1530406973.75,8340,15.0,73350.8,-3.51,-4.33,-4.33,0,*68
1530406974.97,8341,15.06,73354.0,-3.51,-4.33,-4.33,0,*69
1530406976.19,8342,15.0,73350.8,-3.51,-4.33,-4.33,0,*6A
1530406977.38,8343,15.0,73352.0,-3.53,-4.37,-4.37,0,*69
1530406978.6,8344,15.0,73352.5,-3.51,-4.33,-4.33,0,*6C
1530406979.8,8345,15.06,73352.0,-3.53,-4.29,-4.29,0,*6F
1530406981.01,8346,15.0,73350.3,-3.51,-4.25,-4.17,0,*6F
1530406982.23,8347,15.0,73350.3,-3.51,-4.17,-4.17,0,*6F
1530406983.45,8348,15.0,73352.0,-3.51,-4.29,-4.29,0,*60
1530406984.64,8349,15.0,73352.8,-3.53,-4.29,-4.33,0,*68
1530406985.86,8350,15.0,73352.5,-3.51,-4.29,-4.29,0,*69
1530406987.06,8351,15.0,73352.8,-3.53,-4.33,-4.29,0,*61
1530406988.26,8352,15.0,73352.3,-3.53,-4.33,-4.33,0,*69
1530406989.47,8353,15.0,73354.3,-3.51,-4.29,-4.33,0,*61
1530406990.68,8354,15.0,73354.5,-3.51,-4.41,-4.45,0,*69
1530406991.87,8355,15.0,73356.5,-3.53,-4.37,-4.41,0,*6F
1530406993.07,8356,15.06,73356.5,-3.53,-4.37,-4.37,0,*6D
1530406994.29,8357,15.06,73360.0,-3.51,-4.33,-4.33,0,*6E
1530406995.47,8358,15.06,73362.5,-3.53,-4.45,-4.45,0,*63
1530406996.69,8359,15.0,73356.8,-3.51,-4.33,-4.33,0,*60
1530406997.87,8360,15.0,73360.3,-3.53,-4.45,-4.45,0,*68
1530406999.07,8361,15.0,73356.3,-3.53,-4.33,-4.37,0,*6D
1530407000.27,8362,15.0,73354.8,-3.53,-4.33,-4.29,0,*61
1530407001.47,8363,15.0,73358.0,-3.53,-4.33,-4.29,0,*60
1530407002.65,8364,15.0,73358.0,-3.53,-4.45,-4.45,0,*6C
1530407003.86,8365,15.0,73354.3,-3.51,-4.45,-4.53,0,*68
1530407005.04,8366,15.0,73354.8,-3.53,-4.45,-4.45,0,*6E
1530407006.23,8367,15.0,73354.3,-3.53,-4.45,-4.45,0,*6F
1530407007.46,8368,15.0,73352.8,-3.53,-4.69,-4.69,0,*60
1530407008.72,8369,15.0,73352.0,-3.55,-4.69,-4.81,0,*61
1530407009.96,8370,15.0,73350.0,-3.55,-4.61,-4.69,0,*67
1530407011.16,8371,15.0,73348.3,-3.57,-4.53,-4.53,0,*6C
1530407012.36,8372,15.0,73346.3,-3.55,-4.37,-4.45,0,*68
1530407013.58,8373,15.0,73348.0,-3.55,-4.37,-4.37,0,*6C
1530407014.79,8374,15.0,73346.5,-3.55,-4.37,-4.37,0,*6B
1530407016.0,8375,15.0,73344.3,-3.55,-4.37,-4.37,0,*6A
1530407017.21,8376,15.0,73346.5,-3.55,-4.37,-4.33,0,*6D
1530407018.43,8377,15.0,73348.8,-3.55,-4.29,-4.29,0,*68
1530407019.64,8378,15.0,73346.3,-3.55,-4.29,-4.29,0,*67
1530407020.87,8379,15.0,73346.8,-3.55,-4.29,-4.21,0,*6E
1530407022.07,8380,15.06,73348.5,-3.55,-4.17,-4.17,0,*60
1530407023.28,8381,15.0,73344.0,-3.55,-4.09,-4.17,0,*6E
1530407024.5,8382,15.0,73344.8,-3.55,-4.17,-4.09,0,*6D
1530407025.71,8383,15.0,73346.0,-3.55,-4.17,-4.09,0,*6C
1530407026.92,8384,15.0,73344.3,-3.55,-4.17,-4.09,0,*6B
1530407028.11,8385,15.0,73344.0,-3.53,-4.17,-4.17,0,*63
1530407029.3,8386,15.0,73346.0,-3.53,-4.17,-4.05,0,*63
1530407030.5,8387,15.0,73344.0,-3.53,-4.09,-4.09,0,*61
1530407031.75,8388,15.0,73344.3,-3.51,-4.01,-4.13,0,*6F
1530407032.94,8389,15.0,73344.8,-3.53,-4.09,-4.17,0,*60
1530407034.15,8390,15.0,73344.3,-3.55,-4.09,-4.17,0,*6E
1530407035.34,8391,15.0,73344.3,-3.53,-4.17,-4.09,0,*69
1530407036.53,8392,15.0,73342.5,-3.53,-4.09,-4.05,0,*69
1530407037.74,8393,15.0,73346.3,-3.55,-4.05,-4.09,0,*6E
1530407038.96,8394,15.0,73344.0,-3.51,-4.05,-4.05,0,*61
1530407040.15,8395,15.0,73346.0,-3.53,-4.09,-4.09,0,*62
1530407041.35,8396,15.0,73342.5,-3.53,-4.09,-4.09,0,*61
1530407042.54,8397,15.0,73350.8,-3.53,-4.05,-4.09,0,*6C
1530407043.76,8398,15.0,73346.5,-3.51,-4.13,-4.05,0,*6A
1530407044.95,8399,15.0,73350.5,-3.53,-4.09,-4.05,0,*62
1530407046.14,8400,15.0,73350.8,-3.53,-4.17,-4.09,0,*66
1530407047.33,8401,15.0,73344.3,-3.53,-4.17,-4.17,0,*68
1530407048.55,8402,15.0,73350.3,-3.51,-4.05,-4.05,0,*69
1530407049.76,8403,15.0,73350.0,-3.51,-4.05,-4.05,0,*68
1530407050.96,8404,15.0,73348.8,-3.53,-4.21,-4.17,0,*68
1530407052.18,8405,15.0,73352.0,-3.51,-4.05,-4.05,0,*6E
1530407053.37,8406,15.0,73350.0,-3.53,-4.09,-4.09,0,*6F
1530407054.56,8407,15.0,73352.8,-3.53,-4.17,-4.09,0,*61
1530407055.8,8408,15.0,73350.3,-3.51,-4.05,-4.01,0,*67
1530407057.02,8409,15.0,73350.3,-3.51,-4.13,-4.13,0,*62
1530407058.22,8410,15.0,73350.3,-3.53,-4.05,-4.09,0,*64
1530407059.49,8411,15.0,73350.3,-3.51,-4.01,-4.01,0,*6B
1530407060.68,8412,15.0,73354.8,-3.53,-4.09,-4.05,0,*66
1530407061.92,8413,15.0,73354.0,-3.51,-4.05,-4.01,0,*6D
1530407063.14,8414,15.0,73354.0,-3.51,-4.05,-4.05,0,*6E
1530407064.34,8415,15.0,73356.5,-3.53,-4.05,-4.05,0,*6D
1530407065.56,8416,15.0,73356.3,-3.53,-4.01,-4.05,0,*6A
1530407066.81,8417,15.0,73356.3,-3.51,-4.01,-4.05,0,*69
1530407068.06,8418,15.0,73358.3,-3.51,-4.01,-4.05,0,*66
1530407069.3,8419,15.0,73358.0,-3.51,-4.01,-4.05,0,*67
1530407070.55,8420,15.0,73358.5,-3.51,-4.05,-4.01,0,*6D
1530407071.75,8421,15.0,73358.5,-3.49,-3.91,-4.05,0,*6B
1530407073.02,8422,15.0,73360.8,-3.51,-4.01,-4.01,0,*6B
1530407074.21,8423,15.0,73356.5,-3.49,-4.05,-4.05,0,*63
1530407075.43,8424,15.0,73358.5,-3.49,-4.05,-4.01,0,*60
1530407076.67,8425,15.0,73358.0,-3.49,-4.01,-4.01,0,*65
1530407077.9,8426,15.0,73362.0,-3.49,-4.01,-4.05,0,*62
1530407079.11,8427,15.0,73356.0,-3.49,-4.05,-4.01,0,*63
1530407080.36,8428,15.0,73362.0,-3.49,-4.01,-4.01,0,*68
1530407081.61,8429,15.0,73362.3,-3.49,-4.01,-4.01,0,*69
1530407082.86,8430,15.0,73362.5,-3.49,-4.01,-4.01,0,*61
1530407084.07,8431,15.0,73366.3,-3.49,-4.05,-4.01,0,*64
1530407085.29,8432,15.0,73360.8,-3.47,-3.95,-3.95,0,*6D
1530407086.5,8433,15.0,73362.3,-3.47,-3.95,-3.95,0,*6C
1530407087.74,8434,15.0,73358.5,-3.47,-4.01,-3.95,0,*61
1530407088.98,8435,15.0,73358.0,-3.47,-3.95,-4.01,0,*60
1530407090.2,8436,15.0,73356.3,-3.47,-3.95,-4.05,0,*67
1530407091.47,8437,15.0,73356.5,-3.47,-4.01,-4.01,0,*68
1530407092.69,8438,15.0,73356.5,-3.49,-4.01,-3.91,0,*67
1530407093.91,8439,15.0,73356.3,-3.49,-4.05,-4.01,0,*6C
1530407095.12,8440,15.0,73352.3,-3.47,-3.95,-3.95,0,*68
1530407096.35,8441,15.0,73352.0,-3.49,-4.01,-4.05,0,*63
1530407097.56,8442,15.06,73358.5,-3.49,-4.13,-4.01,0,*67
1530407098.75,8443,15.0,73352.5,-3.49,-4.05,-4.05,0,*65
1530407099.94,8444,15.0,73352.5,-3.49,-4.13,-4.05,0,*65
1530407101.17,8445,15.0,73354.3,-3.49,-4.01,-4.05,0,*67
1530407102.39,8446,15.0,73352.0,-3.49,-4.01,-4.05,0,*64
1530407103.6,8447,15.0,73352.5,-3.49,-4.05,-4.01,0,*65
1530407104.82,8448,15.0,73356.3,-3.47,-4.09,-4.13,0,*6B
1530407106.01,8449,15.0,73354.8,-3.49,-4.13,-4.05,0,*68
1530407107.2,8450,15.0,73352.5,-3.49,-4.13,-4.13,0,*67
1530407108.41,8451,15.0,73352.8,-3.47,-4.09,-4.13,0,*63
1530407109.65,8452,15.0,73356.3,-3.47,-4.01,-4.09,0,*63
1530407110.85,8453,15.0,73354.3,-3.49,-4.13,-4.13,0,*64
1530407112.04,8454,15.0,73356.3,-3.49,-4.05,-4.13,0,*64
1530407113.29,8455,15.0,73354.3,-3.49,-4.01,-4.01,0,*62
1530407114.56,8456,15.0,73358.3,-3.47,-4.01,-4.01,0,*6F
1530407115.78,8457,15.0,73356.8,-3.49,-4.01,-4.05,0,*64
1530407117.01,8458,15.0,73358.5,-3.47,-4.09,-4.01,0,*69
1530407118.25,8459,15.0,73358.5,-3.47,-4.09,-4.01,0,*68
1530407119.49,8460,15.0,73356.5,-3.47,-4.09,-4.01,0,*62
1530407120.68,8461,15.0,73358.8,-3.49,-4.13,-4.05,0,*62
1530407121.88,8462,15.0,73354.8,-3.47,-4.13,-4.09,0,*63
1530407123.08,8463,15.0,73354.8,-3.49,-4.29,-4.25,0,*6B
1530407124.3,8464,15.0,73356.0,-3.47,-4.21,-4.21,0,*6E
1530407125.52,8465,15.0,73354.5,-3.47,-4.13,-4.13,0,*6F
1530407126.7,8466,15.0,73352.8,-3.49,-4.17,-4.17,0,*62
1530407127.92,8467,15.0,73356.5,-3.47,-4.25,-4.29,0,*61
1530407129.13,8468,15.0,73354.3,-3.47,-4.13,-4.09,0,*69
1530407130.32,8469,15.0,73352.5,-3.49,-4.13,-4.05,0,*6A
1530407131.51,8470,15.0,73354.3,-3.49,-4.17,-4.13,0,*61
1530407132.7,8471,15.0,73352.5,-3.49,-4.17,-4.17,0,*64
1530407133.89,8472,15.0,73354.8,-3.49,-4.25,-4.17,0,*66
1530407135.08,8473,15.0,73354.8,-3.49,-4.17,-4.17,0,*66
1530407136.29,8474,15.0,73346.5,-3.51,-4.13,-4.17,0,*6C
1530407137.48,8475,15.0,73346.5,-3.49,-4.29,-4.25,0,*6C
1530407138.68,8476,15.0,73348.0,-3.49,-4.25,-4.13,0,*66
1530407139.87,8477,15.0,73344.8,-3.49,-4.17,-4.17,0,*62
1530407141.06,8478,15.0,73342.0,-3.49,-4.29,-4.25,0,*61
1530407142.25,8479,15.0,73344.3,-3.49,-4.25,-4.17,0,*6D
1530407143.44,8480,15.0,73350.0,-3.49,-4.25,-4.17,0,*6B
1530407144.64,8481,15.0,73352.0,-3.49,-4.13,-4.13,0,*6B
1530407145.83,8482,15.0,73350.8,-3.49,-4.25,-4.25,0,*68
1530407147.03,8483,15.0,73354.8,-3.49,-4.13,-4.13,0,*69
1530407148.24,8484,15.0,73358.5,-3.51,-4.13,-4.17,0,*63
1530407149.46,8485,15.0,73356.0,-3.51,-4.13,-4.13,0,*66
1530407150.67,8486,15.0,73350.0,-3.51,-4.13,-4.17,0,*61
1530407151.88,8487,15.0,73350.8,-3.51,-4.17,-4.17,0,*64
1530407153.1,8488,15.0,73350.8,-3.51,-4.13,-4.17,0,*6F
1530407154.32,8489,15.0,73348.5,-3.51,-4.17,-4.13,0,*6E
1530407155.53,8490,15.0,73344.3,-3.51,-4.13,-4.13,0,*62
1530407156.75,8491,15.0,73350.0,-3.51,-4.05,-4.05,0,*63
1530407157.94,8492,15.0,73344.3,-3.49,-4.13,-4.13,0,*69
1530407159.14,8493,15.0,73350.0,-3.49,-4.13,-4.13,0,*68
1530407160.33,8494,15.0,73350.0,-3.49,-4.17,-4.13,0,*6B
1530407161.52,8495,15.0,73354.3,-3.49,-4.17,-4.17,0,*6E
1530407162.71,8496,15.0,73354.0,-3.49,-4.29,-4.29,0,*6D
1530407163.91,8497,15.0,73354.0,-3.49,-4.29,-4.25,0,*60
1530407165.13,8498,15.0,73352.5,-3.51,-4.29,-4.29,0,*6A
1530407166.35,8499,15.0,73352.3,-3.51,-4.25,-4.25,0,*6B
1530407167.57,8500,15.0,73354.0,-3.51,-4.25,-4.25,0,*6A
1530407168.79,8501,15.0,73352.0,-3.51,-4.17,-4.17,0,*6B
1530407170.0,8502,15.0,73354.3,-3.51,-4.13,-4.13,0,*68
1530407171.2,8503,15.0,73354.8,-3.49,-4.13,-4.13,0,*60
1530407172.39,8504,15.0,73354.3,-3.49,-4.13,-4.05,0,*60
1530407173.59,8505,15.0,73356.5,-3.53,-4.17,-4.21,0,*68
1530407174.8,8506,15.0,73358.0,-3.51,-4.13,-4.17,0,*68
1530407176.02,8507,15.0,73356.0,-3.51,-4.17,-4.13,0,*69
1530407177.23,8508,15.0,73348.5,-3.51,-4.13,-4.17,0,*66
1530407178.44,8509,15.0,73348.0,-3.51,-4.13,-4.17,0,*67
1530407179.66,8510,15.0,73350.5,-3.51,-4.17,-4.17,0,*6B
1530407180.87,8511,15.0,73354.0,-3.51,-4.13,-4.17,0,*6E
1530407182.09,8512,15.0,73352.5,-3.51,-4.13,-4.13,0,*69
1530407183.31,8513,15.0,73352.3,-3.51,-4.13,-4.13,0,*68
1530407184.52,8514,15.0,73346.5,-3.51,-4.13,-4.17,0,*6B
1530407185.71,8515,15.0,73350.8,-3.53,-4.17,-4.17,0,*6C
1530407186.93,8516,15.0,73352.8,-3.51,-4.13,-4.13,0,*6D
1530407188.17,8517,15.0,73352.0,-3.51,-4.13,-4.01,0,*6F
1530407189.41,8518,15.0,73354.3,-3.51,-4.05,-4.01,0,*67
1530407190.66,8519,15.0,73352.8,-3.51,-4.01,-4.05,0,*66
1530407191.88,8520,15.0,73352.5,-3.51,-4.05,-4.05,0,*68
1530407193.09,8521,15.0,73354.3,-3.51,-4.05,-4.17,0,*6A
1530407194.31,8522,15.0,73352.5,-3.51,-4.13,-4.13,0,*6A
1530407195.53,8523,15.0,73346.5,-3.51,-4.05,-4.13,0,*6C
1530407196.72,8524,15.0,73342.8,-3.49,-4.05,-4.13,0,*62
1530407197.94,8525,15.0,73346.0,-3.49,-4.05,-4.01,0,*60
1530407199.16,8526,15.0,73352.0,-3.49,-4.05,-4.01,0,*63
1530407200.35,8527,15.0,73352.8,-3.49,-4.05,-4.05,0,*66
1530407201.54,8528,15.0,73354.0,-3.49,-4.13,-4.05,0,*6E
1530407202.73,8529,15.0,73352.8,-3.49,-4.13,-4.13,0,*68
1530407203.95,8530,15.0,73356.5,-3.51,-4.13,-4.05,0,*6E
1530407205.14,8531,15.0,73356.0,-3.49,-4.13,-4.13,0,*61
1530407206.33,8532,15.0,73356.0,-3.49,-4.25,-4.17,0,*63
1530407207.53,8533,15.0,73354.8,-3.49,-4.29,-4.25,0,*6F
1530407208.72,8534,15.0,73358.5,-3.49,-4.25,-4.25,0,*64
1530407209.92,8535,15.0,73352.5,-3.49,-4.25,-4.25,0,*65
1530407211.12,8536,15.0,73348.8,-3.49,-4.25,-4.25,0,*66
1530407212.32,8537,15.0,73336.8,-3.49,-4.25,-4.13,0,*62
1530407213.54,8538,15.0,73340.0,-3.51,-4.13,-4.13,0,*61
1530407214.75,8539,15.0,73342.5,-3.51,-4.13,-4.17,0,*64
1530407215.96,8540,15.0,73342.8,-3.51,-4.17,-4.17,0,*6E
1530407217.18,8541,15.0,73346.8,-3.51,-4.13,-4.13,0,*6F
1530407218.37,8542,15.0,73338.5,-3.49,-4.13,-4.17,0,*61
1530407219.56,8543,15.0,73334.5,-3.49,-4.13,-4.13,0,*64
1530407220.75,8544,15.0,73334.3,-3.49,-4.13,-4.13,0,*63
1530407221.96,8545,15.0,73328.5,-3.51,-4.17,-4.17,0,*6B
1530407223.15,8546,15.0,73324.5,-3.49,-4.13,-4.17,0,*65
1530407224.34,8547,15.0,73330.3,-3.49,-4.17,-4.17,0,*60
1530407225.53,8548,15.0,73332.0,-3.49,-4.25,-4.17,0,*6E
1530407226.75,8549,15.0,73326.0,-3.51,-4.13,-4.13,0,*67
1530407227.97,8550,15.0,73330.3,-3.51,-4.13,-4.13,0,*6F
1530407229.16,8551,15.0,73328.0,-3.49,-4.05,-4.05,0,*67
1530407230.35,8552,15.0,73334.8,-3.49,-4.13,-4.05,0,*63
1530407231.54,8553,15.0,73336.0,-3.49,-4.13,-4.05,0,*62
1530407232.73,8554,15.0,73338.0,-3.49,-4.05,-4.05,0,*62
1530407233.92,8555,15.0,73336.5,-3.49,-4.17,-4.17,0,*63
1530407235.1,8556,15.0,73334.0,-3.49,-4.17,-4.17,0,*60
1530407236.29,8557,15.0,73338.5,-3.49,-4.13,-4.05,0,*66
1530407237.49,8558,15.0,73338.5,-3.49,-4.05,-4.05,0,*6E
1530407238.68,8559,15.0,73342.3,-3.49,-4.05,-4.05,0,*6F
1530407239.89,8560,15.0,73342.5,-3.49,-4.05,-4.01,0,*61
1530407241.09,8561,15.0,73336.3,-3.49,-4.05,-4.05,0,*64
1530407242.3,8562,15.0,73338.0,-3.51,-4.05,-4.05,0,*6E
1530407243.49,8563,15.0,73340.0,-3.49,-4.05,-4.05,0,*66
1530407244.71,8564,15.0,73344.8,-3.49,-4.05,-4.01,0,*65
1530407245.9,8565,15.0,73342.0,-3.49,-4.17,-4.25,0,*61
1530407247.09,8566,15.0,73342.3,-3.49,-4.41,-4.45,0,*67
1530407248.3,8567,15.0,73344.5,-3.47,-4.37,-4.49,0,*65
1530407249.52,8568,15.0,73340.3,-3.51,-4.57,-4.65,0,*65
1530407250.74,8569,15.0,73340.0,-3.51,-4.57,-4.57,0,*65
1530407251.96,8570,15.0,73340.0,-3.51,-4.33,-4.33,0,*6D
1530407253.18,8571,15.0,73342.0,-3.51,-4.33,-4.29,0,*67
1530407254.37,8572,15.0,73336.5,-3.53,-4.37,-4.37,0,*6D
1530407255.6,8573,15.0,73338.3,-3.51,-4.33,-4.29,0,*65
1530407256.82,8574,15.0,73336.8,-3.51,-4.25,-4.25,0,*69
1530407258.04,8575,15.0,73336.0,-3.51,-4.29,-4.29,0,*68
1530407259.23,8576,15.0,73336.5,-3.53,-4.29,-4.33,0,*62
1530407260.46,8577,15.0,73338.3,-3.51,-4.25,-4.25,0,*6A
1530407261.67,8578,15.0,73336.3,-3.51,-4.17,-4.17,0,*65
1530407262.88,8579,15.0,73334.0,-3.51,-4.17,-4.17,0,*64
1530407264.07,8580,15.0,73328.5,-3.53,-4.17,-4.17,0,*60
1530407265.26,8581,15.0,73322.8,-3.49,-4.17,-4.13,0,*6E
1530407266.48,8582,15.0,73316.8,-3.51,-4.13,-4.13,0,*60
1530407267.7,8583,15.0,73316.0,-3.51,-4.17,-4.13,0,*65
1530407268.92,8584,15.0,73316.0,-3.51,-4.13,-4.13,0,*66
1530407270.14,8585,15.0,73326.0,-3.51,-4.13,-4.05,0,*60
1530407271.35,8586,15.0,73332.8,-3.51,-4.13,-4.05,0,*63
1530407272.57,8587,15.0,73338.5,-3.51,-4.13,-4.13,0,*65
1530407273.79,8588,15.0,73342.3,-3.51,-4.13,-4.13,0,*6A
1530407274.99,8589,15.0,73340.3,-3.53,-4.21,-4.17,0,*6C
1530407276.2,8590,15.0,73344.8,-3.51,-4.05,-4.05,0,*63
1530407277.42,8591,15.0,73346.5,-3.51,-4.05,-4.05,0,*62
1530407278.64,8592,15.0,73340.3,-3.51,-4.05,-4.05,0,*61
1530407279.88,8593,15.0,73342.0,-3.51,-4.05,-4.01,0,*64
1530407281.1,8594,15.0,73340.3,-3.49,-4.05,-4.01,0,*6A
1530407282.29,8595,15.0,73340.0,-3.53,-4.09,-4.05,0,*68
1530407283.54,8596,15.0,73340.0,-3.51,-4.01,-4.05,0,*61
1530407284.81,8597,15.0,73338.5,-3.51,-4.01,-4.01,0,*64
1530407286.03,8598,15.0,73336.0,-3.51,-4.05,-4.05,0,*6B
1530407287.25,8599,15.0,73336.3,-3.51,-4.13,-4.05,0,*6D
1530407288.46,8600,15.0,73340.3,-3.51,-4.05,-4.05,0,*69
1530407289.65,8601,15.0,73340.3,-3.49,-4.05,-4.05,0,*61
1530407290.85,8602,15.0,73340.3,-3.49,-4.05,-4.05,0,*62
1530407292.06,8603,15.0,73342.8,-3.49,-4.05,-4.01,0,*67
1530407293.31,8604,15.0,73344.0,-3.49,-4.01,-4.01,0,*64
1530407294.52,8605,15.0,73340.3,-3.47,-3.95,-3.87,0,*68
1530407295.72,8606,15.0,73346.0,-3.49,-4.05,-3.91,0,*6C
1530407296.96,8607,15.0,73344.3,-3.49,-4.01,-4.01,0,*67
1530407298.21,8608,15.0,73346.3,-3.49,-4.01,-4.01,0,*68
1530407299.43,8609,15.0,73348.5,-3.49,-4.05,-4.01,0,*6D
1530407300.65,8610,15.0,73348.5,-3.49,-4.01,-3.91,0,*6F
1530407301.87,8611,15.0,73344.5,-3.47,-3.95,-3.95,0,*6E
1530407303.09,8612,15.0,73346.5,-3.49,-3.91,-4.01,0,*6D
1530407304.34,8613,15.0,73350.0,-3.49,-4.01,-4.01,0,*62
1530407305.59,8614,15.0,73346.3,-3.49,-4.01,-4.01,0,*65
1530407306.78,8615,15.0,73346.8,-3.49,-4.05,-4.05,0,*64
1530407307.97,8616,15.0,73344.5,-3.49,-4.13,-4.13,0,*67
1530407309.18,8617,15.0,73350.3,-3.47,-4.09,-4.13,0,*63
1530407310.4,8618,15.0,73348.3,-3.47,-3.95,-3.95,0,*67
1530407311.64,8619,15.0,73350.0,-3.47,-4.01,-3.95,0,*6C
1530407312.86,8620,15.0,73348.5,-3.49,-4.05,-4.01,0,*66
1530407314.05,8621,15.0,73354.0,-3.49,-4.13,-4.13,0,*63
1530407315.24,8622,15.0,73348.0,-3.49,-4.13,-4.13,0,*60
1530407316.46,8623,15.0,73354.8,-3.47,-4.13,-4.13,0,*6F
1530407317.65,8624,15.0,73346.5,-3.49,-4.25,-4.17,0,*67
1530407318.84,8625,15.0,73348.5,-3.49,-4.29,-4.29,0,*67